Location: Newark
(46.7636°N, 1.8358°W)
Time: 17:20:17
(UTC+00:00)

Vanguard 2 Rocket - Pass Details

Date: 15 October 2019
Orbit: 554 x 3326 km, 32.9° (Epoch: 20 November)

Event Time Altitude Azimuth Distance (km) Brightness Sun altitude
Rises 10:46:01 0° 232° (SW) 7,082 11.7 32.7°
Reaches altitude 10° 10:50:57 10° 226° (SW) 6,207 11.5 33.0°
Maximum altitude 11:09:13 44° 164° (SSE) 3,923 12.5 33.9°
Drops below altitude 10° 11:24:05 10° 99° (E) 5,140 11.0 34.4°
Sets 11:27:41 0° 93° (E) 5,824 11.1 34.4°
